Weather History for Summerville, SC

Change the Weather History Date:

Friday, December 7, 2012

  Actual Average (KCHS) Record (KCHS)
Temperature  
Mean Temperature 54 °F 53 °F  
Max Temperature 60 °F 64 °F 81 °F (1951)
Min Temperature 46 °F 42 °F 23 °F (1984)
Degree Days  
Heating Degree Days 11 13  
Month to date heating degree days 83  
Since 1 July heating degree days 375  
Cooling Degree Days 0 0  
Month to date cooling degree days 0  
Year to date cooling degree days 2297  
Growing Degree Days 4 (Base 50)    
Moisture  
Dew Point 49 °F    
Average Humidity 85    
Maximum Humidity 100    
Minimum Humidity 71    
Precipitation  
Precipitation 0.00 in 0.08 in 1.14 in (1976)
Month to date precipitation 0.64  
Year to date precipitation 48.56  
Sea Level Pressure  
Sea Level Pressure 30.06 in    
Wind  
Wind Speed 5 mph (North)    
Max Wind Speed 10 mph    
Max Gust Speed -    
Visibility 10 miles    
Events      
T = Trace of Precipitation, MM = Missing Value Source: NWS Daily Summary

Daily Weather History Graph

Daily Weather History Graph

Search for Another Location

Airport:

Trip Planner

Search our weather history database for the weather conditions in past years. The results will help you decide how hot, cold, wet, or windy it might be!

Date:

Astronomy

Dec. 07, 2012 Rise Set
Actual Time 7:11 AM EST 5:14 PM EST
Civil Twilight 6:44 AM EST 5:41 PM EST
Nautical Twilight 6:13 AM EST 6:12 PM EST
Astronomical Twilight 5:43 AM EST 6:42 PM EST
Moon 12:46 AM EST (12/7) 12:54 PM EST (12/7)
Length of Visible Light 10h 57m
Length of Day
10h 02m
Last Quarter, 39% of the Moon is Illuminated
Dec 7
Last Quarter
Dec 13
New
Dec 20
First Quarter
Dec 28
Full
Jan 4
Last Quarter

Hourly Weather History & Observations

Time (EST) Temp. Dew Point Humidity Pressure Visibility Wind Dir Wind Speed Gust Speed Precip Events Conditions
12:15 AM 51.8 °F 44.6 °F 76% 30.13 in 10.0 mi NE 3.5 mph - N/A   Overcast
12:35 AM 51.8 °F 42.8 °F 71% 30.12 in 10.0 mi Calm Calm - N/A   Overcast
12:55 AM 51.8 °F 44.6 °F 76% 30.11 in 10.0 mi NNE 8.1 mph - N/A   Overcast
1:15 AM 51.8 °F 44.6 °F 76% 30.11 in 10.0 mi NNE 5.8 mph - N/A   Overcast
1:35 AM 50.0 °F 44.6 °F 82% 30.11 in 10.0 mi NNE 5.8 mph - N/A   Overcast
1:55 AM 51.8 °F 44.6 °F 76% 30.11 in 10.0 mi NNE 8.1 mph - N/A   Overcast
2:15 AM 51.8 °F 44.6 °F 76% 30.12 in 10.0 mi North 8.1 mph - N/A   Overcast
2:35 AM 51.8 °F 44.6 °F 76% 30.10 in 10.0 mi NNE 5.8 mph - N/A   Overcast
2:55 AM 51.8 °F 46.4 °F 82% 30.09 in 10.0 mi NNE 6.9 mph - N/A   Overcast
3:15 AM 51.8 °F 46.4 °F 82% 30.09 in 10.0 mi North 9.2 mph - N/A   Overcast
3:35 AM 51.8 °F 44.6 °F 76% 30.08 in 10.0 mi NNE 6.9 mph - N/A   Overcast
3:55 AM 50.0 °F 44.6 °F 82% 30.08 in 10.0 mi North 6.9 mph - N/A   Overcast
4:15 AM 50.0 °F 44.6 °F 82% 30.09 in 10.0 mi North 8.1 mph - N/A   Overcast
4:35 AM 50.0 °F 44.6 °F 82% 30.09 in 10.0 mi North 8.1 mph - N/A   Overcast
4:55 AM 50.0 °F 44.6 °F 82% 30.08 in 10.0 mi North 9.2 mph - N/A   Overcast
5:15 AM 50.0 °F 44.6 °F 82% 30.08 in 10.0 mi North 8.1 mph - N/A   Overcast
5:35 AM 50.0 °F 44.6 °F 82% 30.07 in 10.0 mi NNE 5.8 mph - N/A   Overcast
5:55 AM 50.0 °F 44.6 °F 82% 30.08 in 10.0 mi North 5.8 mph - N/A   Overcast
6:15 AM 50.0 °F 44.6 °F 82% 30.08 in 10.0 mi North 6.9 mph - N/A   Overcast
6:35 AM 50.0 °F 44.6 °F 82% 30.08 in 10.0 mi North 5.8 mph - N/A   Overcast
6:55 AM 50.0 °F 44.6 °F 82% 30.09 in 10.0 mi North 6.9 mph - N/A   Overcast
7:15 AM 50.0 °F 44.6 °F 82% 30.09 in 10.0 mi North 9.2 mph - N/A   Overcast
7:35 AM 50.0 °F 44.6 °F 82% 30.09 in 10.0 mi North 10.4 mph - N/A   Overcast
7:55 AM 50.0 °F 44.6 °F 82% 30.09 in 10.0 mi North 6.9 mph - N/A   Overcast
8:15 AM 50.0 °F 46.4 °F 87% 30.09 in 10.0 mi North 9.2 mph - N/A   Overcast
8:35 AM 50.0 °F 46.4 °F 87% 30.09 in 10.0 mi North 9.2 mph - N/A   Overcast
8:55 AM 50.0 °F 46.4 °F 87% 30.10 in 10.0 mi NNW 8.1 mph - N/A   Overcast
9:15 AM 50.0 °F 46.4 °F 87% 30.11 in 10.0 mi North 10.4 mph - N/A   Overcast
9:35 AM 50.0 °F 48.2 °F 94% 30.11 in 10.0 mi North 9.2 mph - N/A   Overcast
9:55 AM 51.8 °F 48.2 °F 88% 30.11 in 10.0 mi North 6.9 mph - N/A   Overcast
10:15 AM 51.8 °F 48.2 °F 88% 30.11 in 10.0 mi North 9.2 mph - N/A   Overcast
10:35 AM 53.6 °F 50.0 °F 88% 30.10 in 10.0 mi North 6.9 mph - N/A   Overcast
10:55 AM 53.6 °F 50.0 °F 88% 30.09 in 10.0 mi North 5.8 mph - N/A   Overcast
11:35 AM 55.4 °F 50.0 °F 82% 30.07 in 10.0 mi NNW 4.6 mph - N/A   Overcast
11:55 AM 55.4 °F 50.0 °F 82% 30.06 in 10.0 mi North 3.5 mph - N/A   Overcast
12:15 PM 55.4 °F 50.0 °F 82% 30.05 in 10.0 mi North 4.6 mph - N/A   Overcast
12:35 PM 57.2 °F 51.8 °F 82% 30.04 in 10.0 mi North 6.9 mph - N/A   Overcast
12:55 PM 57.2 °F 51.8 °F 82% 30.03 in 10.0 mi North 4.6 mph - N/A   Overcast
1:15 PM 59.0 °F 51.8 °F 77% 30.02 in 10.0 mi North 4.6 mph - N/A   Overcast
1:35 PM 59.0 °F 51.8 °F 77% 30.02 in 10.0 mi Calm Calm - N/A   Overcast
1:55 PM 59.0 °F 53.6 °F 82% 30.01 in 10.0 mi NNW 3.5 mph - N/A   Overcast
2:15 PM 59.0 °F 53.6 °F 82% 30.01 in 10.0 mi North 4.6 mph - N/A   Overcast
2:35 PM 60.8 °F 53.6 °F 77% 30.00 in 10.0 mi Calm Calm - N/A   Overcast
2:55 PM 60.8 °F 53.6 °F 77% 30.00 in 10.0 mi NNW 5.8 mph - N/A   Overcast
3:15 PM 60.8 °F 53.6 °F 77% 30.00 in 10.0 mi WNW 3.5 mph - N/A   Overcast
3:35 PM 60.8 °F 53.6 °F 77% 30.00 in 10.0 mi North 3.5 mph - N/A   Overcast
3:55 PM 60.8 °F 53.6 °F 77% 30.00 in 10.0 mi North 4.6 mph - N/A   Overcast
4:15 PM 60.8 °F 53.6 °F 77% 30.00 in 10.0 mi NE 4.6 mph - N/A   Overcast
4:35 PM 60.8 °F 53.6 °F 77% 30.00 in 10.0 mi North 4.6 mph - N/A   Overcast
4:55 PM 59.0 °F 53.6 °F 82% 30.00 in 10.0 mi North 6.9 mph - N/A   Overcast
5:15 PM 59.0 °F 53.6 °F 82% 30.00 in 10.0 mi North 5.8 mph - N/A   Overcast
5:55 PM 55.4 °F 53.6 °F 94% 30.01 in 10.0 mi North 4.6 mph - N/A   Overcast
6:15 PM 55.4 °F 53.6 °F 94% 30.02 in 10.0 mi North 3.5 mph - N/A   Overcast
6:35 PM 55.4 °F 51.8 °F 88% 30.01 in 10.0 mi Calm Calm - N/A   Overcast
6:55 PM 55.4 °F 51.8 °F 88% 30.02 in 10.0 mi Calm Calm - N/A   Overcast
7:15 PM 53.6 °F 53.6 °F 100% 30.02 in 10.0 mi Calm Calm - N/A   Overcast
7:35 PM 55.4 °F 53.6 °F 94% 30.02 in 10.0 mi Calm Calm - N/A   Overcast
7:55 PM 55.4 °F 51.8 °F 88% 30.02 in 10.0 mi Calm Calm - N/A   Overcast
8:15 PM 53.6 °F 51.8 °F 94% 30.03 in 10.0 mi Calm Calm - N/A   Scattered Clouds
8:35 PM 51.8 °F 51.8 °F 100% 30.03 in 10.0 mi Calm Calm - N/A   Scattered Clouds
8:55 PM 51.8 °F 51.8 °F 100% 30.03 in 10.0 mi Calm Calm - N/A   Clear
9:15 PM 50.0 °F 50.0 °F 100% 30.04 in 10.0 mi Calm Calm - N/A   Scattered Clouds
9:35 PM 51.8 °F 51.8 °F 100% 30.04 in 10.0 mi Calm Calm - N/A   Overcast
9:55 PM 51.8 °F 51.8 °F 100% 30.04 in 10.0 mi Calm Calm - N/A   Overcast
10:15 PM 51.8 °F 51.8 °F 100% 30.03 in 10.0 mi Calm Calm - N/A   Scattered Clouds
10:35 PM 50.0 °F 50.0 °F 100% 30.04 in 10.0 mi Calm Calm - N/A   Clear
10:55 PM 50.0 °F 50.0 °F 100% 30.04 in 7.0 mi Calm Calm - N/A   Clear
11:35 PM 48.2 °F 48.2 °F 100% 30.03 in 7.0 mi Calm Calm - N/A   Clear
11:55 PM 46.4 °F 46.4 °F 100% 30.03 in 7.0 mi Calm Calm - N/A   Scattered Clouds